Regional Weather Roundup
Issued by NWS

Home | Current Version | Previous Version | Graphics & Text | Print | Product List | Glossary On
Versions: 1 2 3 4 5 6 7 8 9 10 11 12 13 14 15 16 17 18 19 20 21 22 23 24 25 26 27 28 29 30 31 32 33 34 35 36 37 38 39 40 41 42 43 44 45 46 47 48 49 50
000
ASUS43 KOAX 241110
RWRNE

WEATHER ROUNDUP FOR NEBRASKA
NATIONAL WEATHER SERVICE OMAHA NE
600 AM CDT TUE MAY 24 2016

NOTES: SATELLITE DATA IS BEING USED TO AUGMENT CLOUD COVER ABOVE
       12000 FEET.
       "FAIR" INDICATES FEW OR NO CLOUDS BELOW 12,000 FEET WITH NO
       SIGNIFICANT WEATHER AND/OR OBSTRUCTIONS TO VISIBILITY.

  * THESE STATIONS DO NOT REPORT WEATHER SUCH AS RAIN...SNOW OR FOG.

NEZ001>004-019>022-054>056-241200-
NEBRASKA PANHANDLE

CITY           SKY/WX    TMP DP  RH WIND       PRES   REMARKS
SCOTTSBLUFF    CLEAR     39  36  89 CALM      29.90R
ALLIANCE       CLEAR     35  33  92 CALM      29.88S
CHADRON        CLEAR     37  34  89 NE6       29.88R WCI  32
KIMBALL        CLEAR     41  39  93 W3        29.92S
SIDNEY         MOCLDY    42  39  89 NW7       29.92R
$$

NEZ057>060-069>072-079>082-241200-
SOUTHWEST NEBRASKA

CITY           SKY/WX    TMP DP  RH WIND       PRES   REMARKS
NORTH PLATTE   CLOUDY    53  49  86 CALM      29.90R
IMPERIAL       CLOUDY    56  47  71 SE8       29.86R
LEXINGTON      CLOUDY    55  49  81 W8        29.91R
MCCOOK         CLOUDY    57  48  72 N14       29.89R
OGALLALA       PTCLDY    45  41  87 CALM      29.89S
$$

NEZ005>010-023>029-035>040-094-241200-
NORTH CENTRAL NEBRASKA

CITY           SKY/WX    TMP DP  RH WIND       PRES   REMARKS
VALENTINE      CLEAR     43  40  89 W6        29.85R
AINSWORTH      CLEAR     50  43  76 W5        29.86R
BROKEN BOW     CLOUDY    50  47  89 CALM      29.89R
O`NEILL        CLOUDY    51  46  84 SW5       29.84R
ORD            CLOUDY    52  51  97 CALM      29.86R
THEDFORD       CLOUDY    49  44  84 S5        29.90R
$$

NEZ041-046>049-061>064-073>077-083>087-241200-
SOUTH CENTRAL NEBRASKA

CITY           SKY/WX    TMP DP  RH WIND       PRES   REMARKS
GRAND ISLAND   CLOUDY    58  58 100 SW3       29.87R FOG
AURORA         CLOUDY    59  59 100 W3        29.87R FOG
HASTINGS       CLOUDY    61  59  93 E5        29.85R
HEBRON         TSTM      64  57  77 W22G28    29.89R
HOLDREGE       CLOUDY    62  60  95 SW6       29.90R
KEARNEY *      CLOUDY    61  57  88 NW3       29.88R
YORK           CLOUDY    59  57  94 N3        29.85R
$$

NEZ011>018-030>034-042>045-241200-
NORTHEAST NEBRASKA

CITY           SKY/WX    TMP DP  RH WIND       PRES   REMARKS
NORFOLK        CLOUDY    55  53  93 SE5       29.84R
ALBION         CLOUDY    57  55  91 CALM      29.85R
BLAIR          CLOUDY    60  58  94 SE3       29.85R
FREMONT        CLOUDY    58  57  98 CALM      29.85R
TEKAMAH        CLOUDY    58  56  93 S5        29.83S
WAYNE          CLOUDY    55  55  97 SW3       29.84S
$$

NEZ050>053-065>068-078-088>093-241200-
SOUTHEAST NEBRASKA

CITY           SKY/WX    TMP DP  RH WIND       PRES   REMARKS
LINCOLN        CLOUDY    60  58  92 CALM      29.85R
OMAHA EPPLEY   CLOUDY    61  58  90 S3        29.84R
BEATRICE       CLOUDY    62  60  90 CALM      29.84R
FALLS CITY     CLOUDY    66  62  87 W6        29.87R
NEBRASKA CITY  CLOUDY    64  64 100 SE8       29.85S
PLATTSMOUTH    CLOUDY    64  64  99 SE7       29.85S
$$

NEZ044-045-051>053-067-241200-
OMAHA AREA

CITY           SKY/WX    TMP DP  RH WIND       PRES   REMARKS
OMAHA EPPLEY   CLOUDY    61  58  90 S3        29.84R
BLAIR          CLOUDY    60  58  94 SE3       29.85R
FREMONT        CLOUDY    58  57  98 CALM      29.85R
MILLARD        CLOUDY    60  59  96 CALM      29.85R
OFFUTT AFB     CLOUDY    62  62 100 SE2       29.84R
PLATTSMOUTH    CLOUDY    64  64  99 SE7       29.85S
WAHOO          FAIR      58  57  96 S5        29.85R
$$



USA.gov is the U.S. government's official web portal to all federal, state and local government web resources and services.